Location: Brompton
(51.4000°N, 0.5333°E)
Time: 04:13:06
(UTC+00:00)

MetOp-B - Pass Details

Date: 11 May 2021
Orbit: 819 x 822 km, 98.7° (Epoch: 13 June)

Event Time Altitude Azimuth Distance (km) Brightness Sun altitude
Exits shadow 20:15:12 - 150° (SSE) 2,894 6.4 -5.7°
Reaches altitude 10° 20:16:25 10° 149° (SSE) 2,415 6.0 -5.8°
Maximum altitude 20:21:42 63° 69° (ENE) 919 4.3 -6.5°
Drops below altitude 10° 20:27:00 10° 350° (N) 2,430 7.4 -7.1°
Sets 20:29:22 0° 347° (NNW) 3,366 8.3 -7.4°
